Home   Weather   Wroclaw   Past weeks

Flag for Poland Past Weather in Wroclaw, Poland — Yesterday and Last 2 Weeks

Now
27 °F

Ice fog.


Feels Like: 27 °F
Forecast: 27 / 31 °F
Wind: 2 mph from North

Location: Wroclaw Ii

Current Time: Jan 21, 2018 at 9:31:38 am

Latest Report: Jan 21, 2018 at 9:00 am


Visibility: 3 mi

Pressure: 29.77 "Hg

Humidity: 93%

Dew Point: 25 °F

Location of WroclawLocation

Past Weather in Wroclaw — Graph

°F

Wroclaw Temperature Yesterday

Maximum temperature yesterday: 39 °F (at 1:30 pm)
Minimum temperature yesterday: 25 °F (at 9:30 pm)
Average temperature yesterday: 33 °F

High & Low Weather Summary for the Past Weeks

 TemperatureHumidityPressure
High52 °F (Jan 6, 12:00 pm)100% (Jan 10, 2:30 pm)30.54 "Hg (Jan 10, 2:30 pm)
Low19 °F (Jan 15, 4:30 am)52% (Jan 9, 12:00 pm)29.18 "Hg (Jan 18, 4:30 pm)
Average34 °F82%30.00 "Hg
* Reported Jan 6 8:00 am — Jan 21 8:30 am, Wroclaw. Weather by CustomWeather, © 2018

Note: Actual official high and low records may vary slightly from our data, if they occured in-between our weather recording intervals... More about our weather records

Advertising

Wroclaw Weather History for the Previous 24 Hours

Scroll right to see more
 ConditionsComfort  
Time TempWeatherWind HumidityBarometerVisibility
8:30 am
Sun, Jan 21
27 °FIce fog.3 mph93%29.74 "Hg3 mi
8:00 am27 °FIce fog.5 mph93%29.74 "Hg2 mi
7:30 am25 °FIce fog.3 mph100%29.71 "Hg2 mi
7:00 am27 °FIce fog.5 mph93%29.71 "Hg2 mi
6:30 am27 °FIce fog.5 mph93%29.68 "Hg2 mi
6:00 am27 °FIce fog.5 mph93%29.68 "Hg2 mi
5:30 am27 °FIce fog.5 mph93%29.68 "Hg2 mi
5:00 am27 °FIce fog.5 mph93%29.65 "Hg2 mi
4:30 am27 °FIce fog.2 mph93%29.65 "Hg2 mi
4:00 am27 °FIce fog.1 mph93%29.65 "Hg2 mi
3:00 am27 °FIce fog.3 mph93%29.65 "Hg2 mi
2:30 am27 °FIce fog.2 mph93%29.65 "Hg3 mi
2:00 am27 °FIce fog.6 mph93%29.65 "Hg2 mi
1:30 am27 °FIce fog.7 mph100%29.65 "Hg2 mi
1:00 am27 °FIce fog.6 mph93%29.65 "Hg3 mi
12:30 am25 °FIce fog.5 mph93%29.65 "Hg3 mi
12:00 am28 °FPassing clouds.6 mph93%29.65 "Hg4 mi
11:30 pm
Sat, Jan 20
28 °FPassing clouds.7 mph93%29.65 "Hg5 mi
11:00 pm28 °FClear.6 mph93%29.65 "Hg5 mi
10:30 pm28 °FClear.6 mph93%29.65 "Hg5 mi
10:00 pm28 °FPassing clouds.6 mph93%29.65 "Hg5 mi
9:30 pm25 °FClear.7 mph100%29.68 "Hg10 mi
9:00 pm27 °FClear.7 mph93%29.68 "Hg10 mi
8:30 pm28 °FClear.6 mph93%29.68 "Hg10 mi
8:00 pm30 °FClear.3 mph86%29.68 "Hg10 mi
7:30 pm32 °FPassing clouds.6 mph80%29.68 "HgN/A
7:00 pm32 °FClear.6 mph87%29.68 "Hg10 mi
6:30 pm30 °FClear.5 mph93%29.71 "Hg10 mi
6:00 pm32 °FClear.5 mph93%29.71 "Hg10 mi
5:30 pm34 °FClear.2 mph87%29.71 "Hg10 mi
5:00 pm32 °FClear.3 mph87%29.71 "Hg10 mi
4:30 pm36 °FPassing clouds.3 mph81%29.71 "HgN/A
4:00 pm36 °FScattered clouds.7 mph81%29.74 "HgN/A
3:30 pm36 °FScattered clouds.8 mph81%29.74 "HgN/A
3:00 pm36 °FSnow flurries. Broken clouds.9 mph81%29.74 "HgN/A
2:00 pm39 °FScattered clouds.6 mph65%29.74 "HgN/A
1:30 pm39 °FScattered clouds.3 mph75%29.74 "HgN/A
1:00 pm37 °FPassing clouds.5 mph81%29.77 "HgN/A
12:30 pm37 °FPartly sunny.2 mph81%29.77 "HgN/A
12:00 pm36 °FBroken clouds.6 mph87%29.80 "HgN/A
11:30 am36 °FSnow flurries. Partly sunny.5 mph81%29.80 "HgN/A
11:00 am36 °FScattered clouds.7 mph81%29.80 "HgN/A
10:30 am37 °FScattered clouds.6 mph75%29.80 "HgN/A
10:00 am34 °FScattered clouds.5 mph87%29.80 "HgN/A
9:30 am34 °FSnow flurries. Broken clouds.7 mph87%29.80 "Hg2 mi
9:00 am32 °FSnow flurries. Partly sunny.5 mph87%29.80 "HgN/A
Weather by CustomWeather, © 2018

See weather overview